Wind_Speed
18 19 21 23 25 27 28 30 31 32 33 33 34 33 34 33 32 31 29 26 23 23 21 18 17 17 16 18 17 7 7 14 20 23 16 7 9 11 12 13 14 15 13 11 10 5 4 8 10 10 4 2 4 1 2 2 2 3 3 3 0 2 3 5 7 6 1 5 5 4 2 3 10 4 2 3 2 5 6 7 5 4 9 12 14 17 20 22
18 19 21 23 25 27 28 30 31 32 32 32 33 33 34 33 33 31 29 27 25 24 22 21 19 17 16 17 15 5 3 7 17 20 13 9 10 10 11 13 14 14 13 10 9 7 5 5 7 7 5 2 2 2 2 2 3 3 3 1 2 5 5 5 6 5 2 5 7 7 1 1 8 5 3 5 7 5 8 12 4 5 11 10 13 18 21 20
18 20 22 24 26 27 28 29 30 31 31 32 32 33 33 33 33 31 30 29 26 25 23 24 22 17 17 16 13 3 5 2 11 10 11 12 10 11 12 13 13 13 12 8 6 7 4 2 3 6 4 2 2 2 3 2 2 1 3 0 5 5 4 4 4 5 5 4 7 9 3 2 9 4 1 3 9 10 8 10 5 7 11 8 8 8 11 13
18 20 22 24 26 27 28 29 29 30 30 31 31 32 33 33 33 32 32 31 29 26 25 27 24 18 17 13 8 2 5 5 5 5 12 13 11 11 12 12 13 12 10 6 4 5 4 4 6 6 3 2 4 3 3 3 1 1 3 3 5 3 2 4 5 6 5 2 4 7 6 8 9 2 1 1 7 12 8 6 5 8 10 10 10 8 7 8
17 20 22 24 25 26 27 28 29 29 30 30 30 31 32 33 33 33 33 31 29 26 26 28 23 18 13 9 5 5 4 5 2 6 13 13 11 11 12 13 12 11 8 5 3 4 5 6 7 6 4 2 4 4 3 2 2 1 3 5 4 3 3 4 5 5 3 1 4 6 7 9 7 3 3 3 2 8 8 6 5 8 10 9 11 10 7 7
17 20 22 24 25 26 27 27 28 29 30 30 30 29 30 33 33 33 32 30 29 26 27 27 20 14 9 7 7 4 6 3 4 8 12 12 12 11 12 12 12 10 7 6 5 5 5 7 6 4 3 3 3 2 2 3 3 1 4 4 4 4 5 3 3 4 4 1 6 6 5 5 7 9 4 6 9 11 11 11 7 9 10 8 9 8 7 9
17 20 22 24 25 26 26 27 28 28 29 30 30 29 29 31 32 33 32 31 29 26 28 25 17 10 7 10 12 8 7 2 6 10 10 12 11 10 11 9 11 8 5 9 8 4 5 7 5 3 3 4 1 0 2 5 3 1 3 6 5 4 6 4 1 3 4 5 8 4 5 7 9 8 3 4 10 13 14 12 8 8 8 7 7 6 7 9
17 20 22 23 25 26 26 27 28 28 29 29 29 28 28 29 30 32 31 31 28 26 28 21 14 8 5 5 7 7 5 1 7 9 10 12 9 10 10 8 10 8 7 11 7 2 3 5 2 3 2 2 1 1 2 4 3 3 5 6 5 5 5 4 4 5 5 7 6 2 4 12 11 4 5 9 11 11 11 8 6 7 9 8 7 8 7 8
17 19 22 23 25 26 26 27 27 28 29 29 29 28 29 29 29 30 30 30 27 25 26 17 10 6 3 3 6 5 2 4 7 8 11 12 8 10 9 8 10 8 9 10 7 4 2 1 1 2 1 0 1 1 2 3 2 4 5 5 6 12 9 3 4 5 4 4 4 3 5 12 9 4 5 11 11 7 5 7 7 9 11 11 10 9 8 9
17 20 22 23 25 25 26 27 28 29 29 29 29 28 30 29 28 28 28 29 25 24 24 12 7 6 2 3 7 4 2 5 7 8 12 12 8 8 7 9 10 8 8 7 7 5 1 2 3 2 4 2 0 1 0 1 1 3 4 7 8 14 11 3 2 2 3 3 8 7 6 11 6 4 4 7 6 5 8 8 9 10 10 11 10 9 9 9
17 20 22 23 25 25 26 27 28 29 30 30 29 29 30 29 28 27 27 27 23 23 21 10 5 6 8 6 7 4 2 4 6 10 13 11 9 8 8 10 9 8 6 5 4 2 2 2 5 3 2 1 0 0 2 3 2 1 3 8 9 11 9 1 2 3 4 0 8 7 5 7 5 1 6 7 5 7 9 9 9 8 7 8 9 9 8 8
17 20 22 24 24 25 26 27 28 29 30 30 28 30 30 29 29 26 26 24 20 23 17 7 3 5 9 9 5 3 1 5 8 12 13 11 11 9 9 10 8 7 5 4 2 1 2 0 4 4 0 1 0 2 1 2 1 1 2 4 8 11 9 4 4 2 5 1 5 5 3 4 2 5 9 7 6 7 8 9 8 7 6 7 7 7 7 9
17 19 22 23 24 25 26 27 28 29 30 29 29 30 29 28 28 27 26 19 19 22 13 5 4 3 4 5 2 2 1 6 12 13 13 12 10 7 9 11 8 7 4 4 2 1 3 1 4 4 2 2 1 1 2 2 2 2 2 1 4 8 7 6 4 5 7 3 1 3 3 3 5 9 9 4 7 10 12 10 7 7 6 6 7 7 8 10
17 19 22 23 24 25 26 27 28 28 29 29 29 29 28 26 27 27 23 15 19 21 8 4 5 1 4 2 2 2 1 5 12 14 14 13 9 6 9 11 8 6 5 5 4 3 4 2 5 4 1 2 1 2 1 4 4 2 2 2 3 4 6 9 7 6 9 4 6 10 5 5 6 9 7 1 6 10 13 14 10 8 8 8 8 8 9 10
16 19 21 23 24 25 26 27 27 29 29 28 28 29 26 24 26 26 17 15 22 15 2 4 6 4 5 2 1 2 3 5 12 16 15 14 10 6 9 9 6 6 6 5 5 5 6 4 5 4 1 2 3 3 3 4 4 3 3 3 3 2 7 11 6 3 6 5 7 10 6 8 9 8 3 4 6 5 8 14 10 9 9 9 8 8 9 9
16 19 21 23 25 25 26 27 28 29 28 28 28 27 24 21 26 22 13 18 21 7 2 5 5 4 4 2 0 3 4 6 12 14 12 13 9 6 11 8 4 6 5 5 5 5 6 5 4 2 1 4 4 4 3 4 4 3 4 4 5 5 8 10 4 3 6 6 7 5 4 10 12 10 8 8 7 5 5 9 8 9 9 9 7 7 8 9
17 19 21 23 24 25 26 27 28 28 28 27 27 27 22 19 24 15 12 24 17 2 4 5 4 4 3 1 2 3 5 8 11 10 11 13 8 7 10 6 4 5 6 5 4 2 5 5 1 0 3 4 1 3 5 5 4 4 3 3 5 4 6 8 6 2 7 7 7 6 6 10 15 14 12 10 8 11 11 7 8 9 7 7 7 7 8 9
17 20 21 23 24 25 26 26 27 28 28 26 26 26 18 18 20 9 16 29 13 1 4 6 6 4 1 3 1 4 10 11 9 8 11 12 8 7 7 4 4 5 5 3 5 4 5 3 2 1 4 5 4 6 5 2 3 4 4 4 5 4 4 6 8 6 8 6 6 11 11 16 20 13 10 9 6 10 12 8 9 8 8 7 8 9 10 10
18 20 21 22 24 24 25 26 27 27 26 25 26 23 14 17 14 4 20 28 8 1 2 3 5 1 2 3 3 8 10 6 4 8 13 12 7 4 4 4 4 6 6 4 5 5 3 4 5 4 5 6 4 3 2 5 6 6 5 3 5 7 5 6 7 5 9 9 8 11 15 22 25 16 13 12 8 8 7 8 8 8 8 8 9 10 11 12
18 20 21 22 23 23 24 25 25 25 25 26 27 19 9 12 8 3 17 17 3 2 2 3 2 2 2 2 5 10 6 1 1 10 16 13 7 2 3 6 6 7 6 2 5 3 3 5 3 1 3 6 5 3 4 4 3 3 4 3 5 8 8 6 6 4 7 8 8 12 19 25 25 18 14 13 11 8 6 10 7 7 7 8 9 10 12 11
18 20 21 22 22 22 23 23 23 22 21 23 21 12 3 3 4 3 8 8 1 2 1 4 4 4 5 3 5 6 3 2 3 11 18 13 5 3 4 6 7 6 4 2 5 3 5 5 2 6 5 5 3 3 3 1 1 2 3 5 5 6 9 10 5 3 7 7 10 13 20 28 25 16 13 11 9 7 8 10 7 8 7 7 10 11 10 8
18 19 21 22 21 20 21 20 21 19 18 19 17 12 5 3 2 1 2 5 5 1 2 4 2 4 6 4 3 3 4 4 4 9 16 12 5 4 3 6 6 2 5 3 3 5 6 3 7 6 3 2 4 4 4 2 1 3 3 3 5 4 7 9 4 3 5 4 10 13 15 26 23 12 10 5 5 5 7 8 7 7 8 9 10 10 10 10
18 19 21 22 21 19 19 17 17 17 16 17 16 10 4 2 1 1 2 2 6 4 2 1 1 4 5 1 1 2 4 4 1 7 14 10 5 3 3 5 4 1 4 5 4 4 4 5 5 3 4 5 4 3 5 4 2 2 3 3 5 5 5 7 8 11 7 3 6 9 10 20 17 8 7 2 11 7 6 8 7 7 8 8 7 7 9 12
18 19 20 21 20 17 16 15 13 13 14 15 15 10 4 1 1 2 2 1 4 5 2 1 2 2 3 1 2 2 3 2 0 5 10 7 2 2 4 3 2 3 1 1 3 0 6 8 1 4 4 4 3 5 4 4 4 2 3 3 5 6 5 6 10 15 13 1 3 5 9 15 11 7 9 4 11 8 6 9 8 7 6 7 7 8 8 9
19 20 20 21 19 16 14 12 9 10 10 9 10 8 6 5 1 4 2 2 2 5 2 1 1 2 3 1 3 1 3 1 1 3 7 5 2 1 3 2 2 2 3 2 2 3 6 6 1 4 5 6 4 4 2 0 3 4 2 3 4 7 7 8 10 12 12 7 2 6 9 14 11 10 11 6 10 7 6 8 7 5 7 9 9 9 8 8
19 20 20 20 17 15 12 7 6 10 7 5 6 6 7 7 1 6 2 4 2 5 2 0 1 1 2 2 3 0 3 1 1 2 5 4 1 2 2 1 2 0 4 2 2 2 3 2 3 4 4 6 5 2 4 3 1 3 2 3 3 4 6 8 10 7 6 10 3 6 3 13 12 7 6 3 9 6 5 7 4 3 6 8 8 6 6 8
20 20 19 18 16 13 7 2 5 7 3 2 6 7 7 6 2 6 1 5 2 2 0 1 0 2 2 3 2 1 1 2 1 3 4 3 3 2 1 3 1 1 2 2 3 2 3 3 6 5 6 6 3 1 4 4 3 3 3 1 2 4 7 7 7 4 4 9 6 4 6 8 10 3 1 6 6 6 6 6 4 4 5 6 6 5 4 6
20 20 18 15 14 11 6 2 3 3 1 4 8 8 7 3 4 4 3 3 2 0 1 2 0 1 3 4 4 3 2 3 2 2 3 5 4 2 2 2 4 3 1 3 3 4 2 1 4 5 6 3 2 3 4 2 2 5 3 2 3 4 7 4 4 6 3 5 6 2 5 4 8 3 5 9 5 6 8 7 6 9 8 6 7 5 4 5
20 20 17 13 10 8 7 4 2 2 2 6 7 7 4 2 3 4 4 0 2 1 1 1 0 2 4 4 5 3 2 3 1 4 3 5 5 4 2 2 5 2 1 3 4 5 0 1 2 4 3 2 3 2 2 3 1 6 4 3 3 3 5 3 3 5 4 4 5 3 2 1 8 8 6 5 4 4 7 6 6 10 8 6 8 7 5 7
20 19 15 11 7 5 6 5 3 4 6 7 6 5 2 3 3 5 2 3 1 1 1 1 1 2 5 4 5 4 2 1 3 4 4 2 5 6 3 0 4 5 2 4 0 4 3 1 2 3 1 4 3 1 1 5 1 4 5 5 5 4 3 1 2 1 3 5 4 2 2 2 7 7 2 2 3 2 3 7 8 11 11 9 10 11 10 11
19 18 14 10 6 4 5 4 4 6 7 6 5 3 2 2 4 4 3 4 0 2 1 1 2 3 6 3 3 4 3 3 5 4 4 3 6 7 4 2 4 4 3 4 2 6 6 4 1 0 1 1 4 3 1 1 3 4 5 5 5 5 4 2 3 3 1 6 3 2 5 5 5 5 4 5 3 3 1 7 11 12 12 10 11 12 12 12
18 17 13 8 5 3 2 2 4 7 7 5 4 2 3 4 2 3 4 3 2 2 0 0 2 3 4 2 2 3 2 3 3 4 2 2 4 4 4 1 1 3 4 1 2 6 5 1 1 2 1 2 4 2 4 5 5 6 5 4 4 4 5 4 3 1 4 10 4 4 8 6 8 7 0 6 4 2 2 7 11 11 11 11 14 16 15 15
17 15 12 7 4 3 2 2 5 6 5 2 2 3 6 3 3 4 2 3 1 1 1 1 2 1 1 2 3 2 0 2 2 4 1 2 4 2 3 0 2 1 2 2 1 3 4 3 2 2 2 2 4 4 2 3 4 4 1 3 3 1 4 6 5 3 4 11 9 6 6 5 6 5 2 7 3 5 8 13 14 14 16 17 18 19 18 17
15 13 9 6 5 4 3 3 5 4 2 1 4 4 3 1 5 3 2 4 3 2 2 1 3 2 0 2 3 1 0 1 1 3 2 2 3 1 1 3 3 2 2 1 1 2 1 4 1 1 1 2 3 4 4 2 2 1 2 3 3 3 1 4 4 3 5 11 15 11 5 3 3 1 4 4 1 8 14 15 13 13 15 16 17 17 17 16
13 10 8 6 6 4 2 3 4 2 2 2 5 3 2 4 4 1 3 4 2 2 2 1 1 3 3 2 3 1 1 1 1 2 2 2 1 3 2 2 2 1 3 1 2 2 2 5 3 1 1 4 3 2 4 5 3 2 2 2 0 3 3 3 4 4 4 9 11 6 4 5 4 3 1 4 8 14 17 12 9 12 14 16 16 16 16 15
11 9 8 6 6 4 0 2 3 3 3 4 4 3 5 4 3 3 3 2 0 1 2 4 1 2 4 2 2 3 1 1 1 2 1 0 1 3 4 2 1 0 3 3 1 1 1 4 3 1 2 3 1 3 1 3 2 1 2 1 4 3 4 1 5 5 2 5 7 4 8 9 7 6 6 11 15 17 15 10 11 16 18 18 17 16 17 16
8 6 6 6 5 4 2 3 4 4 3 6 3 6 4 4 5 4 3 1 1 3 3 4 2 3 2 2 1 2 1 1 1 1 1 1 1 3 4 2 2 2 2 2 1 2 2 3 6 4 1 1 3 3 3 3 3 3 1 3 3 1 3 3 1 3 2 5 5 6 13 13 7 5 7 13 18 17 13 12 16 19 19 19 18 18 19 18
5 4 5 7 6 4 4 4 5 5 4 4 4 5 3 4 3 3 3 2 1 3 3 2 4 3 2 2 2 2 0 1 0 1 1 1 1 3 5 2 3 3 3 1 1 1 2 1 4 2 3 2 0 4 4 4 4 4 3 2 2 1 1 1 1 1 4 6 5 7 14 11 3 2 8 15 18 14 13 15 18 20 18 17 17 18 19 19
3 2 3 6 7 4 6 7 6 5 4 3 5 4 3 3 3 3 5 4 3 3 2 5 4 1 2 3 3 3 2 2 2 1 1 1 1 3 5 2 3 2 2 2 3 1 1 1 2 1 4 3 2 3 1 3 4 3 2 2 3 2 2 1 1 2 3 6 4 7 12 7 1 3 11 15 15 12 14 16 17 18 18 16 16 16 16 17
3 1 2 7 7 6 9 8 4 4 2 4 5 3 2 2 3 3 5 4 3 3 3 4 4 3 3 3 3 2 2 3 3 2 2 2 1 1 2 2 2 1 2 2 2 1 2 1 3 3 2 1 1 1 3 2 1 1 2 2 2 1 0 1 1 3 2 3 2 4 11 8 2 6 12 12 11 12 15 16 15 17 19 18 16 15 16 16
3 1 3 7 10 11 11 6 2 3 3 3 3 3 3 2 2 2 3 4 3 2 3 4 4 4 3 2 3 3 3 2 3 3 3 3 1 1 3 4 4 2 1 3 1 1 1 1 2 3 3 1 3 3 3 5 6 4 3 2 2 1 1 2 3 2 3 2 2 2 12 11 1 3 8 8 10 13 15 15 15 17 20 18 16 16 18 18
3 2 3 9 14 14 9 2 2 3 2 3 3 3 2 2 3 3 2 3 2 2 2 2 4 4 4 3 3 3 3 2 3 3 3 3 2 2 4 5 4 2 3 2 1 1 2 2 0 5 4 2 4 4 1 4 6 6 3 2 2 2 3 2 4 4 2 4 4 4 12 11 1 1 6 7 12 14 14 15 16 17 18 17 18 18 19 20
2 3 4 10 15 12 5 3 2 1 3 3 2 2 3 2 3 3 3 3 3 2 2 2 3 4 4 3 3 4 4 3 5 5 2 2 2 3 4 5 3 2 2 1 1 1 2 3 1 4 4 1 3 6 4 4 5 2 1 2 3 2 3 4 5 4 4 6 5 4 10 10 3 2 6 9 12 12 12 15 16 16 16 17 20 21 20 21
2 1 2 8 13 9 4 6 5 4 5 3 2 3 2 2 4 5 5 5 4 4 3 3 3 3 3 2 3 5 5 3 4 4 3 3 2 2 3 2 1 3 2 1 2 1 0 1 2 3 5 3 3 4 4 3 2 1 2 2 4 5 4 3 3 2 2 7 8 5 8 10 7 7 11 13 13 13 14 14 14 16 17 18 20 22 21 20
1 1 1 4 9 6 3 5 5 6 6 5 6 6 3 2 4 6 6 5 4 4 3 2 2 2 2 2 1 3 5 3 2 2 3 3 2 0 1 3 2 2 2 2 2 2 1 1 2 1 3 4 4 4 3 2 1 1 4 7 7 5 4 1 1 1 3 7 9 6 8 13 13 12 16 16 15 16 16 14 14 16 19 20 20 21 20 19
2 2 0 1 3 4 2 1 1 4 5 5 4 5 7 7 4 2 5 5 4 5 3 2 2 3 2 4 3 4 5 2 0 1 2 3 3 2 4 5 4 4 3 2 3 3 2 1 2 5 6 6 7 7 4 2 2 3 8 13 13 7 3 2 1 3 4 6 9 9 11 16 16 15 18 19 17 17 16 15 16 18 20 21 20 20 22 23
2 3 4 3 1 3 3 1 2 4 4 6 5 4 8 10 4 1 4 5 3 4 3 1 4 5 5 6 4 4 4 1 1 3 3 3 3 1 2 3 3 5 5 4 3 3 4 1 4 7 9 8 7 9 6 3 2 3 9 16 16 10 6 3 4 6 5 5 8 11 13 16 17 16 19 20 17 16 16 16 18 19 20 20 20 24 29 30
4 2 3 5 3 4 5 5 8 9 7 7 5 3 6 9 7 5 5 2 1 3 3 2 5 9 9 9 6 4 4 3 2 3 3 3 3 1 0 1 1 3 3 2 1 3 4 3 5 5 7 7 6 9 8 5 3 3 10 18 16 12 11 9 9 9 6 5 11 16 17 18 17 16 17 18 17 17 18 16 17 18 18 19 23 29 32 31
2 1 1 2 3 5 6 7 11 13 13 10 6 5 8 11 11 7 4 3 2 4 6 6 8 10 9 8 8 6 6 5 4 4 4 3 4 3 1 1 1 1 3 2 0 2 2 2 2 3 4 4 6 8 7 6 4 4 12 17 13 12 14 11 11 11 8 11 17 19 19 18 16 15 15 16 17 17 16 15 16 19 21 23 26 28 28 27
4 4 3 1 1 2 2 4 10 10 11 10 8 8 9 12 14 9 4 7 7 4 7 10 9 8 8 9 9 8 9 8 5 6 7 6 4 4 2 2 3 3 3 2 1 1 1 1 2 1 2 3 6 7 6 6 5 7 14 16 12 12 13 10 9 7 5 11 17 17 17 15 11 11 14 16 17 18 18 16 15 17 22 26 26 24 25 26
9 5 7 4 2 5 3 2 7 7 8 9 10 10 9 12 16 11 5 7 10 7 8 12 9 5 4 7 11 10 8 7 5 7 11 9 6 5 3 3 6 6 4 3 1 1 2 1 1 3 2 3 4 4 4 5 5 9 16 15 11 10 9 7 7 5 5 10 14 14 12 11 10 11 13 17 19 21 22 18 14 17 23 26 25 24 26 26
10 4 7 5 3 6 6 3 5 7 7 9 11 12 11 11 12 10 5 5 6 6 6 8 8 5 3 8 12 10 6 5 3 4 7 5 3 3 3 3 6 7 5 4 2 1 2 2 1 2 1 3 2 3 2 1 2 8 9 7 7 8 9 9 7 6 8 9 9 9 9 11 13 13 14 17 20 22 21 17 15 18 20 20 22 24 25 26
Wind_Direction
14 14 12 12 10 10 10 8 8 7 7 7 6 6 5 6 8 9 7 5 6 6 8 5 356 356 356 354 1 32 73 63 57 53 55 29 5 13 8 6 8 6 4 355 3 20 13 13 11 18 64 75 18 353 22 33 68 52 83 88 146 180 199 183 187 197 223 294 296 308 69 323 306 315 301 321 274 264 290 275 242 246 249 243 260 276 281 285
11 11 10 10 9 9 8 7 6 5 6 5 5 4 4 5 5 6 4 1 2 5 6 3 356 350 349 345 347 2 142 68 54 50 37 13 10 9 5 7 6 4 4 359 14 33 37 356 340 17 46 45 1 350 33 26 52 78 117 85 236 200 212 192 180 190 216 291 305 303 325 254 283 313 3 313 301 313 310 292 268 268 272 262 264 269 275 277
8 9 8 8 7 7 6 6 4 3 4 4 4 2 2 3 3 3 1 359 359 3 4 360 354 349 347 338 338 347 186 86 48 32 6 7 9 8 8 6 3 2 2 1 23 34 42 12 1 34 38 31 10 355 30 14 20 107 123 130 243 213 241 239 195 204 227 294 311 297 331 300 281 302 36 310 308 307 291 285 293 294 294 297 284 275 282 277
7 6 6 6 5 4 4 3 2 1 2 3 2 1 0 360 1 1 359 357 357 1 1 357 352 351 349 338 342 173 170 55 38 347 355 3 2 4 6 1 1 2 1 1 25 29 35 49 41 45 44 9 343 7 36 349 9 101 143 193 228 192 286 253 205 223 233 247 275 287 326 303 293 314 208 10 322 303 286 261 240 266 285 296 301 303 298 282
4 4 4 3 2 1 1 1 359 359 359 0 1 360 359 357 358 358 357 355 355 358 358 355 352 354 355 346 355 179 153 45 345 342 357 355 354 359 1 359 1 3 7 12 17 30 31 40 48 44 40 11 346 16 22 335 75 99 215 214 213 168 273 250 176 203 194 164 268 291 307 292 304 308 228 165 247 274 282 279 241 259 280 293 300 306 309 295
2 1 1 360 359 358 357 358 358 358 357 357 359 358 357 356 356 355 355 353 352 356 356 354 353 360 19 36 45 129 120 69 311 349 353 351 355 359 3 3 9 9 17 41 38 40 35 31 47 53 33 31 18 23 322 324 49 327 270 267 251 194 235 261 141 177 148 54 274 271 294 303 307 295 246 181 224 248 267 284 290 285 294 306 302 303 309 297
0 359 358 357 356 355 354 357 357 356 355 355 355 356 356 355 354 352 352 351 350 355 355 352 354 12 77 73 62 74 87 83 335 358 360 360 360 6 12 7 14 12 26 46 34 44 55 33 44 115 69 26 4 242 308 329 26 136 265 292 284 203 207 241 263 213 186 230 255 280 334 302 276 289 328 213 234 252 267 286 307 307 315 326 314 307 305 297
357 356 355 354 353 352 353 355 355 354 353 352 352 353 355 354 352 349 348 348 349 355 354 349 354 21 107 93 74 57 46 333 344 7 8 5 6 10 8 0 14 21 50 49 34 61 74 37 52 149 53 6 190 192 333 338 5 159 231 286 304 273 230 234 265 255 230 230 251 342 313 271 261 274 311 278 258 254 271 305 338 341 338 337 336 326 321 316
355 353 352 352 351 351 352 353 353 352 351 350 350 351 353 353 350 347 345 345 348 353 351 347 358 24 96 84 87 67 347 311 347 5 1 360 4 1 358 9 22 32 63 57 43 55 45 28 203 193 136 146 170 274 343 352 314 201 235 293 302 295 298 313 283 254 243 227 184 144 249 266 282 313 280 268 264 268 315 345 354 358 345 337 338 331 333 329
352 351 351 350 350 350 351 351 351 350 349 348 348 349 351 350 348 345 342 343 346 350 348 346 358 19 63 55 73 78 302 324 348 352 350 351 355 355 10 27 31 42 70 64 47 52 24 195 179 159 137 116 124 252 320 82 239 202 260 297 289 292 299 324 317 265 279 239 166 158 245 268 305 352 281 267 276 338 359 352 354 357 341 331 328 325 332 329
351 350 348 348 350 350 350 350 349 348 348 347 347 348 349 349 347 343 341 340 342 346 343 342 7 55 76 70 84 91 331 347 353 350 349 351 360 9 26 25 28 46 69 74 59 51 354 191 153 113 110 121 157 293 247 216 228 225 295 300 295 306 304 348 60 307 322 253 172 174 241 284 345 30 242 273 323 9 3 345 346 347 330 323 323 327 334 330
350 349 345 346 349 350 349 348 347 347 346 346 346 347 350 349 344 342 340 337 339 343 338 339 11 104 81 63 82 93 43 17 5 1 0 2 8 17 22 9 22 46 60 82 75 39 19 166 122 84 93 173 326 13 227 224 297 301 3 308 309 338 327 346 59 331 344 32 193 195 230 307 310 225 249 287 347 4 351 340 342 345 336 331 334 338 341 345
349 347 343 344 349 350 348 345 345 344 344 344 344 347 351 347 343 342 341 336 338 342 335 342 344 192 80 52 95 86 62 12 9 14 17 13 12 18 12 356 5 37 48 83 98 75 52 77 112 103 132 119 319 318 142 45 6 290 33 50 329 354 320 315 360 347 356 360 13 5 322 287 235 241 266 297 6 348 333 340 356 0 4 6 6 7 5 5
348 344 340 344 350 349 346 344 343 342 341 342 344 347 350 346 342 341 342 338 336 340 333 348 359 146 79 65 185 71 355 354 10 16 17 16 15 13 9 358 355 33 56 80 89 68 66 104 102 91 83 89 308 297 327 9 13 302 347 44 23 2 295 317 332 350 0 333 10 6 310 274 272 274 281 342 25 352 330 336 357 13 25 33 27 29 25 20
345 340 339 345 349 349 345 342 341 340 340 342 345 347 349 345 339 340 344 338 335 340 347 5 20 98 78 55 195 29 360 4 9 6 5 7 15 7 357 357 4 43 64 73 73 73 76 93 81 69 308 18 32 19 342 341 10 11 359 335 358 357 299 321 329 46 25 311 359 12 306 298 299 280 303 31 18 8 330 328 354 34 42 40 35 33 25 18
341 337 339 346 349 348 343 340 340 339 339 343 344 346 348 344 337 340 347 343 341 350 64 19 31 82 83 66 7 25 18 3 355 358 2 2 14 7 350 345 353 36 70 81 82 86 65 57 65 70 37 38 41 52 40 7 354 8 27 321 310 337 317 323 323 108 50 340 354 26 285 299 302 297 334 1 352 349 322 321 9 52 48 41 37 27 22 15
338 335 339 347 349 346 341 339 339 338 339 342 345 346 348 344 337 337 351 351 352 51 67 40 35 60 76 40 38 22 348 332 337 353 3 2 6 360 356 345 328 32 83 82 65 57 25 30 74 268 49 54 35 56 45 12 332 321 17 334 296 312 304 316 313 324 42 13 331 315 275 279 287 301 330 346 352 339 333 356 51 64 50 40 33 23 23 15
334 334 341 347 347 344 340 338 338 339 338 340 347 346 341 343 338 331 352 353 354 105 54 45 32 65 70 356 29 311 312 315 334 359 356 357 359 351 10 8 332 22 60 50 31 25 2 11 76 28 15 17 18 53 48 299 256 274 306 312 300 288 244 277 294 315 12 4 306 311 305 296 295 307 335 338 2 342 339 31 68 60 46 35 29 24 19 12
332 334 341 346 346 344 338 337 339 340 338 341 350 346 339 349 344 321 351 355 12 43 337 352 11 127 253 316 281 304 313 304 342 7 356 357 354 337 27 30 17 40 38 6 6 22 9 6 39 38 355 339 344 66 165 218 212 244 266 259 292 300 266 245 261 302 352 337 322 325 313 305 305 319 342 337 350 346 358 60 62 46 45 31 26 23 14 12
330 335 339 343 345 342 337 338 339 341 344 346 352 354 354 2 2 328 344 350 58 77 322 249 272 239 292 312 299 327 346 163 66 16 6 359 343 320 20 20 29 44 47 353 324 354 57 26 30 181 286 292 273 212 195 204 203 255 283 282 292 297 295 291 285 317 4 342 320 322 313 302 302 321 344 339 339 347 49 75 55 44 48 31 29 21 13 10
329 334 337 341 344 342 338 337 338 345 352 353 4 26 59 34 25 321 328 326 277 84 345 247 226 261 279 259 309 345 43 103 34 17 11 360 342 346 351 21 40 21 5 274 291 336 47 23 263 218 237 272 262 175 142 107 15 325 300 315 317 291 293 298 294 344 22 2 315 318 313 298 300 327 340 336 344 4 69 81 60 51 47 34 31 20 12 5
328 333 334 338 343 342 337 337 338 344 351 2 33 71 107 103 74 257 265 306 300 316 315 278 242 288 277 243 307 11 78 48 10 359 3 3 8 19 356 39 67 4 330 353 350 360 13 325 250 234 200 85 56 98 93 52 344 313 299 329 317 298 307 295 279 11 27 18 307 310 304 293 301 333 332 348 64 57 78 89 75 58 42 30 24 14 9 4
326 331 332 335 342 341 337 338 335 340 359 27 58 80 93 90 64 242 167 279 295 303 334 309 217 296 301 252 331 35 75 64 353 332 351 5 26 60 75 53 53 15 348 19 47 25 332 275 245 212 147 112 50 36 60 38 4 297 288 316 302 317 346 307 316 335 325 176 250 290 288 287 302 341 330 66 110 94 80 89 76 64 48 33 19 11 11 6
324 329 331 332 339 341 337 334 333 350 19 51 65 65 63 31 269 197 179 214 300 298 283 223 208 248 277 298 353 28 91 110 157 327 346 16 67 57 88 98 38 49 352 350 63 54 266 269 240 86 85 98 26 341 31 23 338 295 249 259 294 320 328 292 314 328 321 265 183 313 307 289 309 358 333 17 101 86 57 63 53 50 39 23 16 15 16 8
323 326 329 330 336 343 338 334 349 10 22 53 54 41 32 1 322 167 163 38 323 295 288 240 227 223 239 263 344 341 132 93 45 294 333 17 93 31 67 138 69 48 228 232 360 290 265 271 118 74 31 55 55 330 318 164 322 316 252 233 282 308 309 302 321 333 330 321 108 41 329 291 315 352 326 350 82 74 40 55 46 32 21 13 12 8 5 360
322 324 328 329 334 343 341 339 2 6 16 52 27 3 4 354 292 172 128 44 321 285 327 191 215 304 274 326 346 8 104 42 314 304 340 3 16 101 94 287 29 18 215 201 331 280 267 313 68 86 49 48 50 331 262 184 67 312 212 193 252 293 308 313 324 338 319 295 302 81 308 283 307 328 305 1 82 80 42 61 56 25 21 11 5 355 350 352
321 322 326 329 332 341 348 341 344 358 31 20 341 339 352 357 178 175 82 24 328 265 8 256 224 51 304 304 351 85 339 308 21 9 11 6 314 57 38 300 360 307 193 99 344 270 231 331 26 49 63 47 29 325 257 167 125 261 214 177 303 317 313 311 313 296 258 288 306 133 184 270 296 283 323 350 50 59 25 43 42 19 15 359 356 338 326 342
320 321 325 329 331 343 4 353 334 25 97 299 325 335 346 18 161 149 60 11 306 108 74 281 250 36 319 325 31 70 305 322 85 286 335 32 5 29 17 246 188 251 231 128 276 270 219 351 24 39 55 37 281 250 256 175 152 262 263 295 286 287 287 281 274 268 265 309 313 234 186 258 281 274 2 346 33 46 7 19 15 3 359 349 354 334 292 323
320 320 324 329 331 345 1 354 16 65 330 319 332 330 341 102 146 77 65 235 292 45 74 341 200 326 338 358 13 23 360 6 54 267 312 37 24 41 67 204 154 163 348 119 226 258 289 133 136 96 87 221 233 263 263 108 108 284 312 310 273 260 262 229 231 267 314 317 289 269 188 255 287 295 335 347 66 49 353 7 358 353 353 342 352 342 319 330
320 320 322 329 332 338 341 348 36 26 349 343 341 337 23 96 82 53 21 245 299 304 225 352 277 332 13 26 339 337 49 360 318 334 352 27 7 25 77 111 94 109 14 25 253 263 302 306 164 110 139 207 164 102 96 99 73 309 7 353 335 337 293 233 235 285 353 293 244 188 126 31 304 306 30 73 101 106 4 6 347 349 356 350 353 348 339 341
321 320 322 328 335 334 325 337 9 359 354 358 350 359 45 30 67 93 241 243 26 300 317 2 320 21 44 54 303 323 38 341 327 13 13 8 3 8 44 31 37 61 9 14 356 301 332 19 55 76 274 161 107 79 331 357 332 356 34 7 346 340 321 342 352 38 359 269 228 93 8 352 280 293 80 125 137 135 66 4 350 351 355 346 344 341 337 339
321 320 321 327 336 340 326 338 356 352 355 6 355 20 68 17 12 167 242 300 356 310 46 343 311 45 59 48 260 287 355 324 350 56 53 30 37 12 20 51 42 8 347 350 341 330 340 5 314 312 331 75 101 77 325 327 356 13 27 30 20 345 329 343 334 355 249 261 253 55 0 318 257 276 131 139 101 43 344 354 354 353 352 344 343 342 341 340
319 319 318 319 321 332 1 14 4 1 355 10 20 41 74 60 270 215 238 306 298 314 43 49 337 77 91 331 274 264 289 245 360 44 83 95 76 37 342 335 133 80 272 228 349 351 328 295 320 353 341 27 93 94 337 325 22 18 38 88 82 26 328 317 299 304 273 270 287 343 335 283 264 291 146 141 90 1 349 356 359 358 355 349 344 340 336 333
319 317 312 311 311 322 9 24 13 17 350 66 68 44 60 219 249 226 230 257 257 337 23 49 1 1 214 251 266 266 303 260 26 35 15 50 67 112 294 327 17 96 152 181 209 161 277 287 293 133 237 35 72 128 176 164 87 256 177 131 130 146 229 282 275 296 306 293 303 324 311 273 324 338 151 153 334 358 359 358 2 359 349 340 334 330 327 325
316 310 303 300 299 313 14 25 21 56 184 95 67 76 210 236 253 237 226 247 281 338 341 326 347 335 299 262 299 316 216 269 28 39 12 37 133 156 150 298 335 88 134 155 255 156 174 258 261 308 99 93 79 200 174 121 113 218 143 98 161 169 183 234 255 258 288 292 296 313 268 267 328 315 269 3 356 0 357 353 354 345 337 333 327 326 324 322
310 300 293 278 270 270 293 45 61 140 163 82 71 193 211 226 224 199 207 222 224 158 340 325 246 246 295 297 337 348 24 274 6 23 336 139 170 155 148 204 247 173 159 156 222 131 116 270 253 320 23 79 136 231 190 102 139 181 61 205 239 196 154 169 296 295 324 284 282 301 281 289 331 328 343 1 352 349 346 343 344 336 333 332 326 325 325 321
301 285 272 257 249 226 180 78 110 163 131 91 148 222 216 220 208 182 187 177 130 121 67 334 242 189 274 286 279 313 349 301 5 37 272 236 181 153 147 189 184 174 203 167 167 171 142 264 231 195 143 203 201 152 84 53 98 112 143 227 244 309 119 124 313 321 320 268 268 286 287 297 320 317 355 356 339 337 338 338 338 332 331 329 323 324 323 319
285 277 266 241 228 207 156 131 152 151 93 104 211 243 207 207 207 152 152 146 118 103 106 247 238 180 207 239 249 242 197 252 124 66 237 227 223 157 138 179 181 177 237 188 115 181 130 283 265 204 148 194 326 86 71 10 46 106 182 194 90 73 306 20 96 275 280 277 279 288 293 299 288 282 352 342 327 329 334 334 333 327 326 325 320 320 318 317
238 291 286 213 200 186 147 151 153 111 82 167 218 247 209 221 249 175 162 145 118 117 172 231 243 217 191 187 206 208 175 184 173 149 200 183 228 146 129 166 189 193 253 146 132 205 141 134 287 269 179 189 11 73 140 325 1 34 41 38 62 136 202 250 169 165 256 274 280 299 301 298 146 348 337 325 317 327 333 331 328 322 321 320 317 316 314 315
193 274 257 191 175 159 147 144 119 95 134 201 201 220 217 234 257 215 187 175 157 169 204 221 228 235 222 200 211 198 167 187 174 169 207 185 145 161 154 156 163 193 336 54 106 111 59 138 208 245 257 284 326 218 161 161 166 33 43 41 358 356 26 269 214 158 170 244 255 304 291 275 88 356 318 307 312 327 330 324 320 317 316 315 313 313 312 311
156 273 238 185 162 148 140 137 127 141 184 218 208 227 230 196 203 219 205 190 194 211 183 179 204 214 202 207 226 184 168 203 181 178 221 202 150 192 187 156 150 172 87 63 91 153 126 165 198 251 288 261 242 236 183 164 160 147 132 157 196 193 64 338 282 213 141 195 199 253 278 275 59 341 288 297 318 323 323 318 316 315 312 312 312 310 308 307
152 239 204 163 162 157 144 160 202 150 185 222 218 214 196 155 172 198 187 167 203 230 157 160 207 209 197 204 210 179 171 202 190 190 234 218 191 193 172 155 149 153 130 140 229 178 137 99 267 270 264 234 273 295 225 148 138 141 147 154 193 189 123 134 263 279 311 273 243 232 265 277 8 246 272 309 316 315 317 313 312 311 310 312 310 305 304 302
197 206 150 152 166 165 158 213 207 175 221 232 244 208 175 165 184 187 174 170 191 191 168 206 208 204 213 201 172 177 186 196 188 183 197 218 215 197 162 146 151 148 112 131 241 100 89 77 59 282 291 16 354 355 20 67 92 114 195 133 162 211 193 198 227 257 288 276 266 250 261 274 322 302 290 307 306 309 314 310 311 310 310 312 308 305 305 301
227 186 105 164 178 178 195 216 211 220 225 223 245 228 210 205 188 178 188 197 187 156 165 213 208 198 208 168 154 187 196 199 190 177 158 167 191 164 136 112 161 169 150 193 198 136 224 133 92 330 320 348 26 24 360 347 79 152 275 206 198 222 234 244 246 239 263 259 252 250 263 276 303 312 303 305 306 309 310 308 312 312 311 312 309 306 306 303
167 163 360 188 191 196 224 222 213 219 212 207 231 223 204 228 209 192 195 196 176 158 169 206 192 152 142 143 151 208 207 213 211 174 138 151 169 138 225 258 255 203 221 225 172 118 184 207 122 134 279 285 293 300 298 294 241 222 289 280 268 249 213 219 308 221 241 262 257 251 266 280 295 306 304 307 313 313 312 313 315 313 310 310 307 307 309 309
173 206 191 140 209 223 245 275 188 211 196 188 230 216 188 211 238 194 187 194 181 165 161 178 149 108 124 170 185 217 220 233 58 152 148 162 187 237 229 214 202 224 225 149 105 100 107 239 186 185 208 225 251 267 288 339 305 300 303 291 285 278 219 174 145 218 245 280 277 262 265 281 296 307 307 311 316 314 315 320 317 313 311 310 309 312 314 312
207 204 169 149 202 226 233 260 191 212 195 177 201 200 189 205 222 143 189 201 180 154 149 158 159 172 189 176 175 212 206 187 107 162 167 172 185 255 241 173 184 226 205 132 89 96 98 278 232 211 227 235 247 266 284 307 274 273 286 280 280 291 287 246 232 244 257 286 282 275 279 287 297 306 309 310 313 314 316 320 316 310 310 311 314 316 314 311
210 203 175 168 183 202 210 211 200 206 204 189 194 181 181 196 196 190 197 183 132 164 179 202 198 203 198 171 169 192 172 179 221 181 167 169 162 156 187 146 207 225 166 98 24 98 113 244 232 214 241 248 253 266 271 273 255 227 258 268 276 289 287 273 263 260 251 251 268 281 288 290 294 303 307 306 310 313 313 314 311 307 310 316 316 315 313 309
176 265 254 184 202 203 194 181 182 198 207 202 206 200 193 203 204 196 166 141 195 212 199 212 214 206 200 179 177 188 174 182 213 195 180 174 161 159 161 191 221 107 103 90 7 108 118 231 221 226 261 240 229 250 260 259 252 239 255 263 271 278 276 273 270 264 250 252 264 278 286 287 293 300 301 302 306 307 308 315 319 317 319 319 314 312 311 309
172 204 199 139 265 206 180 161 167 192 208 202 215 216 201 212 212 199 164 171 190 197 199 214 209 188 195 197 195 209 202 188 190 186 173 163 171 186 187 184 163 128 123 141 169 232 199 142 140 143 314 245 215 228 244 236 223 242 261 268 276 283 281 276 269 265 256 262 271 283 290 289 292 296 301 306 307 308 313 324 329 323 320 317 310 309 314 314
197 179 154 143 204 181 176 166 157 185 208 200 211 210 200 217 212 197 198 200 193 187 191 202 198 165 181 206 210 224 215 184 184 185 173 167 176 183 182 178 159 148 160 174 160 220 200 176 67 65 9 271 191 178 230 228 220 250 263 270 274 276 275 265 259 252 245 265 280 290 293 293 301 307 308 310 310 312 316 326 333 325 317 312 310 314 319 320
192 167 153 165 210 182 171 159 161 193 212 199 205 206 205 218 203 183 203 219 197 200 187 178 176 157 170 209 216 221 193 160 174 178 164 152 124 121 132 161 156 146 154 163 149 155 152 140 91 89 29 269 169 139 228 253 297 266 254 240 235 248 266 271 264 243 242 260 281 289 289 293 303 310 311 312 314 314 316 327 331 318 307 303 310 318 319 317
Height
838 837 835 834 832 830 827 825 823 821 820 818 816 814 811 810 807 806 804 803 802 800 799 797 795 794 794 792 792 792 791 789 787 787 788 793 793 792 792 791 790 789 788 787 784 783 782 781 780 780 779 781 786 788 788 790 792 792 797 803 802 808 806 797 797 796 793 788 785 787 791 792 784 783 784 782 781 779 778 774 772 772 767 765 763 761 760 758
838 837 835 834 832 830 827 825 823 821 819 817 815 813 811 809 807 806 804 803 801 799 798 796 795 793 792 791 791 790 790 789 787 789 792 794 793 792 792 791 790 789 788 787 785 783 782 783 781 781 781 783 788 788 788 792 793 795 803 804 800 801 797 792 791 790 792 788 785 786 791 793 784 784 785 782 779 780 779 770 768 769 763 762 763 761 759 757
839 837 835 834 832 830 828 825 823 821 819 817 815 813 811 809 807 806 804 802 800 799 797 795 794 792 791 790 789 789 789 788 789 793 795 795 794 793 792 791 791 789 788 787 786 785 783 784 782 783 785 786 790 791 789 792 795 798 803 800 795 796 794 793 793 791 792 790 789 787 791 792 783 784 786 784 781 778 777 770 767 766 762 760 760 760 759 757
839 837 835 834 832 830 828 826 823 821 818 816 815 812 811 808 807 805 803 801 799 798 796 795 793 791 790 788 788 789 787 789 795 798 797 796 795 794 793 792 791 790 789 788 787 786 785 785 784 785 787 788 793 793 792 794 796 801 801 792 791 797 794 791 792 791 793 795 793 789 792 789 781 785 785 785 785 775 769 767 767 766 762 761 759 759 758 756
839 837 836 834 832 830 828 826 823 821 818 816 814 812 810 808 806 804 802 800 798 797 796 794 791 790 789 787 788 787 788 797 801 798 797 797 796 795 793 792 791 790 789 788 787 787 786 786 786 789 791 792 794 792 794 798 798 799 796 790 792 798 793 788 791 792 793 796 794 792 791 786 781 783 781 785 787 775 763 761 764 764 763 763 761 759 759 758
839 837 836 834 832 830 828 826 823 821 818 816 814 812 810 808 806 803 802 800 798 797 795 793 791 789 788 787 788 786 792 802 801 797 798 797 796 795 794 792 792 790 790 789 788 788 787 789 788 792 795 795 798 796 796 799 799 797 793 792 794 795 793 788 790 792 794 795 793 791 789 787 784 780 779 782 780 769 760 760 763 764 763 764 762 761 760 759
839 838 836 834 832 830 828 826 823 821 818 816 814 812 810 808 805 803 802 800 798 797 795 793 790 789 789 788 788 789 795 801 799 798 798 797 796 795 794 793 792 791 790 789 789 789 790 791 791 796 797 796 800 800 799 800 800 799 794 790 789 791 792 788 790 793 795 794 791 791 791 787 782 779 778 777 772 765 761 761 764 765 764 764 762 762 761 760
840 838 836 834 832 830 828 826 823 821 818 816 813 812 810 807 805 803 801 799 798 797 795 793 791 790 790 789 791 795 799 800 799 798 798 797 796 795 794 794 792 791 791 790 791 791 791 793 794 798 798 798 801 800 802 800 798 800 794 789 788 787 788 789 791 792 793 793 791 793 792 780 776 780 777 771 766 763 763 763 765 765 763 763 763 762 762 761
840 838 837 835 833 830 828 825 823 821 818 816 814 811 809 807 805 803 801 799 798 797 795 793 791 790 790 790 792 798 802 800 799 798 797 797 796 795 794 794 793 792 791 792 792 791 792 794 796 796 796 800 802 800 802 798 796 799 794 792 792 784 784 789 789 789 790 791 792 792 787 776 775 780 773 764 761 761 764 765 766 766 763 763 764 763 762 762
840 839 837 835 833 831 828 825 823 820 818 816 813 811 809 807 805 803 801 799 797 796 795 794 792 791 790 791 794 801 802 800 800 799 797 797 796 795 794 794 793 792 792 793 793 792 793 794 795 795 795 800 801 801 802 799 797 800 797 794 793 785 785 788 784 787 788 787 789 787 782 777 777 781 771 760 760 763 764 765 767 767 766 766 765 764 763 763
840 839 837 836 833 831 828 825 823 820 818 815 813 811 809 807 804 803 800 798 798 796 795 794 793 792 790 791 797 803 802 801 801 799 798 797 796 795 794 794 793 793 793 794 793 793 793 793 795 795 795 799 799 801 802 800 799 800 799 794 790 785 782 783 783 786 785 783 788 786 782 781 782 782 768 760 764 766 765 766 768 768 768 768 767 766 766 765
840 839 837 836 833 831 828 825 823 820 818 815 813 810 808 806 804 802 800 799 797 796 795 794 793 793 791 794 800 803 802 801 801 799 798 797 796 795 795 795 794 794 793 794 794 793 794 794 794 794 796 799 798 799 799 800 801 800 800 795 790 786 778 778 782 784 781 782 787 785 782 782 781 774 762 762 768 767 767 768 768 769 770 770 770 770 769 769
840 839 838 836 833 831 828 826 823 821 818 815 813 810 808 806 803 802 800 798 797 796 794 793 794 793 793 798 802 802 801 802 800 799 798 797 797 797 796 795 794 794 794 794 794 793 794 794 794 795 797 798 798 799 798 801 802 798 802 799 794 793 781 776 782 783 779 780 782 781 782 776 771 766 761 767 770 766 766 767 769 770 772 773 773 773 772 772
840 839 838 836 833 831 828 826 824 821 819 816 813 810 808 806 803 802 800 798 797 795 794 793 794 793 795 801 802 801 802 802 801 799 798 798 798 797 796 795 794 795 794 794 795 794 795 794 794 795 798 800 799 798 798 802 801 797 799 799 802 802 786 778 784 783 779 781 777 778 782 774 767 765 763 769 771 768 767 765 768 772 774 776 776 776 775 774
840 839 838 835 833 831 829 827 824 822 819 817 814 810 808 806 803 802 800 799 797 795 794 794 794 794 798 802 801 802 802 802 802 800 799 799 798 797 796 796 795 795 795 796 795 795 795 794 795 797 799 801 800 799 799 798 800 803 800 798 806 808 795 786 786 785 784 784 778 778 780 770 764 763 764 771 772 770 769 766 769 775 777 779 778 779 778 776
840 839 837 835 833 831 829 827 824 822 820 817 814 811 809 806 804 802 801 799 796 795 794 794 795 795 800 804 802 802 803 803 803 802 801 799 798 798 797 795 795 795 795 796 796 796 796 796 800 804 802 801 804 803 798 797 802 808 809 805 806 809 804 793 785 787 790 785 781 784 786 775 763 759 764 771 770 769 770 768 772 778 780 782 782 782 780 778
839 839 837 835 832 831 829 827 825 822 819 817 814 811 809 807 804 801 801 798 796 795 795 795 795 796 802 804 803 804 805 805 804 803 801 799 799 798 797 796 795 795 796 796 796 796 796 799 804 805 804 806 811 805 798 806 812 812 815 813 810 811 810 800 787 787 791 789 785 785 786 779 764 761 767 770 768 767 766 769 776 782 784 784 785 783 781 779
839 838 836 834 832 831 829 827 825 822 819 817 814 811 809 807 804 802 801 798 795 795 795 796 796 802 807 805 805 807 806 805 804 803 801 799 798 798 797 797 796 795 796 797 797 798 799 801 802 800 802 808 811 811 809 816 820 816 819 819 816 815 813 809 797 790 792 792 790 784 779 770 759 762 769 768 769 767 765 774 782 785 787 786 786 784 783 781
839 838 836 834 833 831 829 827 825 822 819 816 814 811 808 806 803 801 800 798 800 801 802 804 804 809 811 807 806 806 804 804 804 803 801 799 798 797 798 798 798 796 797 798 798 803 805 801 802 804 807 810 813 818 817 817 818 818 821 822 821 816 810 809 802 796 796 792 786 784 778 765 754 760 767 765 766 766 769 779 785 787 789 788 788 787 785 783
839 838 836 834 833 831 829 827 825 823 819 816 813 809 809 812 808 806 806 804 809 813 812 812 812 811 809 806 806 803 802 803 803 802 800 799 798 797 798 798 798 798 804 809 806 810 811 805 809 814 815 814 816 821 819 819 821 818 819 820 820 817 807 801 800 799 799 796 787 784 780 763 752 759 766 765 762 764 774 785 789 791 793 792 791 790 788 786
838 837 835 834 833 831 829 827 825 823 820 817 814 814 821 827 823 822 822 813 812 816 814 813 814 811 808 807 805 802 802 802 802 802 800 800 798 796 798 800 801 804 812 818 813 812 812 809 814 817 817 818 820 823 821 820 819 816 816 818 818 817 807 797 800 802 801 801 792 786 781 756 747 760 765 764 765 770 782 789 792 794 794 794 792 791 790 787
838 836 835 834 832 831 829 827 826 824 822 819 818 823 831 834 832 832 833 823 815 814 814 814 813 811 808 807 806 804 803 802 802 801 800 800 797 798 803 805 809 813 817 817 813 816 815 810 813 819 822 824 825 826 823 819 818 815 816 819 817 814 809 797 794 799 804 807 795 789 783 753 744 764 764 762 771 782 790 791 793 795 793 792 791 791 790 786
837 836 834 833 832 831 829 828 826 824 823 822 824 829 833 834 833 833 834 830 820 814 813 813 812 811 808 807 806 804 803 804 805 803 801 799 800 804 806 808 812 816 818 816 816 823 820 811 815 824 825 820 820 823 822 819 818 817 815 818 816 813 817 806 795 798 802 804 797 790 786 759 747 762 762 761 774 787 793 790 792 794 791 793 792 791 789 785
836 835 834 832 832 830 829 828 826 825 825 826 829 832 833 833 833 832 832 829 823 815 812 812 812 811 808 806 805 804 804 807 808 806 804 802 804 807 808 812 815 815 820 819 820 824 819 815 820 824 821 816 816 817 818 817 817 818 817 818 818 817 821 817 809 804 793 795 798 792 786 760 746 761 762 761 775 787 791 789 790 792 791 791 789 788 788 785
835 834 833 832 831 830 829 828 827 828 828 829 831 832 833 832 831 832 830 827 823 816 812 811 811 810 807 805 805 804 805 807 809 807 806 805 806 808 811 816 814 814 820 822 821 820 817 821 824 819 817 818 817 816 817 819 818 819 820 822 823 820 822 820 818 813 797 794 795 796 796 766 746 763 764 762 780 790 791 790 791 792 790 789 787 786 786 785
834 833 832 831 830 829 829 827 828 829 828 831 832 832 832 830 830 831 829 829 823 813 811 812 811 809 806 806 805 804 805 808 810 809 807 807 807 807 811 816 815 816 820 821 821 820 819 824 823 818 817 819 819 819 819 821 820 820 824 830 829 825 825 821 819 820 809 798 791 798 807 782 757 764 764 765 784 792 790 791 792 792 791 789 789 787 786 784
833 833 832 830 829 829 828 828 830 829 830 832 831 831 831 829 830 828 827 832 824 812 811 811 809 808 806 807 806 804 806 808 809 810 809 808 808 807 808 812 815 816 820 822 818 818 819 818 818 819 820 821 821 821 821 823 822 819 825 833 830 823 822 820 821 823 815 805 798 796 804 796 773 765 762 762 778 789 790 791 791 791 791 790 789 787 786 784
833 832 831 830 829 828 827 829 829 829 831 831 830 831 829 828 829 826 831 839 825 809 810 809 807 806 805 807 806 805 807 808 808 809 809 809 808 808 808 811 814 816 821 822 815 816 819 816 817 822 823 824 823 822 824 826 821 818 826 831 827 823 821 821 824 821 817 815 807 793 796 802 782 764 763 763 776 791 789 789 791 788 789 789 787 787 785 784
833 832 831 830 828 827 828 828 829 830 830 829 830 829 827 829 827 826 839 842 821 807 810 808 805 808 808 807 807 809 809 808 810 809 809 810 808 809 812 815 817 817 822 824 816 816 820 821 823 823 824 824 822 827 829 827 823 823 828 826 824 824 819 821 821 814 816 816 807 794 791 799 785 764 767 772 783 795 790 789 791 787 788 788 786 786 784 782
832 831 830 830 828 828 827 827 829 829 829 829 828 828 828 827 826 835 848 838 817 812 812 808 808 813 813 808 808 812 811 812 815 812 810 812 811 812 817 820 819 818 824 827 822 821 823 826 826 823 825 824 824 832 833 829 829 828 827 822 820 819 814 819 821 819 822 810 800 799 794 804 801 772 770 781 787 793 792 791 791 787 787 786 784 784 782 780
832 831 830 829 828 828 827 828 829 828 829 828 827 828 827 826 831 845 847 827 816 817 812 812 818 817 816 814 812 813 812 815 818 815 813 816 817 817 818 819 819 819 820 822 822 823 822 823 826 826 829 827 825 831 833 834 832 827 827 825 822 821 817 819 823 825 824 799 790 799 795 807 809 778 775 790 790 790 793 793 792 789 789 787 786 784 781 779
831 830 829 828 828 828 828 829 829 829 829 828 829 827 826 834 841 840 832 818 817 818 813 818 823 819 821 822 817 817 818 818 819 819 821 824 829 833 832 829 828 822 818 822 826 823 819 826 832 829 829 829 825 826 830 832 830 828 832 831 833 840 834 828 824 823 818 793 784 798 803 810 801 776 780 791 789 792 793 791 791 789 790 787 784 782 778 777
830 829 829 828 827 828 829 829 829 829 828 828 829 825 830 847 846 832 825 819 818 821 819 822 825 826 827 820 817 823 823 820 820 823 828 829 833 842 846 845 843 831 825 832 836 829 822 827 832 826 826 831 826 824 828 828 830 835 836 835 842 851 849 841 829 822 817 797 784 798 810 807 789 776 783 788 788 792 789 786 788 786 787 786 783 782 779 777
829 829 828 827 827 827 828 829 829 829 829 829 829 829 840 850 840 829 828 821 820 825 826 827 828 828 826 820 822 825 821 820 823 825 826 826 826 833 841 845 844 839 835 836 838 836 826 819 824 826 826 830 828 828 831 831 836 840 836 838 843 843 846 849 839 830 829 814 800 803 801 789 780 779 786 789 787 788 785 784 788 788 788 787 784 783 780 777
828 828 827 827 827 827 827 828 828 828 829 828 830 836 845 844 833 829 828 821 822 825 827 831 829 824 822 823 827 828 820 820 826 825 824 825 823 827 838 844 845 844 837 829 832 840 834 821 826 834 831 831 830 832 834 833 837 842 840 841 841 837 840 846 843 840 846 842 824 810 791 774 774 778 781 787 785 783 786 787 789 789 787 786 784 780 778 775
827 827 827 826 825 826 826 827 827 828 828 829 834 839 838 832 826 826 824 821 824 823 824 829 826 821 820 820 825 828 824 823 827 824 824 829 829 833 843 846 847 847 837 827 829 837 835 826 830 836 834 832 833 833 835 832 832 839 843 840 838 840 843 851 854 845 850 854 830 805 789 776 778 782 779 783 785 783 787 788 788 788 785 784 781 777 775 772
827 826 826 824 824 824 825 826 826 828 828 830 835 835 830 824 819 820 822 825 829 827 826 828 823 819 817 816 821 827 825 824 827 824 824 828 829 835 844 845 845 846 841 836 832 834 838 830 826 831 829 831 836 836 835 835 833 838 843 841 839 843 844 857 873 862 854 857 831 804 799 792 794 796 787 786 789 787 789 789 787 786 784 783 780 775 773 769
826 826 824 823 822 823 824 825 825 826 828 831 834 831 827 822 819 820 824 826 828 828 829 828 822 818 819 817 820 826 826 822 824 825 824 823 825 833 840 842 844 845 844 842 834 835 842 833 825 831 830 829 836 834 832 836 839 839 842 842 843 849 851 856 871 870 862 859 837 815 808 799 797 800 795 793 792 789 791 790 788 786 784 782 778 774 772 767
825 825 823 820 821 822 823 824 825 826 828 832 832 827 825 822 819 822 825 824 825 827 827 825 821 819 821 820 819 823 826 822 822 825 822 819 823 832 838 840 841 842 844 843 837 837 840 833 830 835 832 828 829 830 833 838 842 841 843 845 844 850 858 857 861 867 865 859 848 836 822 804 799 801 799 796 792 791 793 791 788 787 783 780 777 773 769 765
825 824 820 819 820 820 822 823 825 826 827 829 828 824 823 821 818 822 825 823 822 823 823 823 822 820 820 822 822 821 824 825 823 823 822 820 822 829 838 841 839 840 844 843 839 839 838 835 834 833 832 830 826 827 832 838 844 845 846 852 854 853 858 858 859 864 865 862 859 856 835 805 798 801 797 794 793 793 793 791 789 786 781 778 776 772 767 762
825 823 818 817 819 820 822 823 824 826 825 825 825 822 821 819 816 820 823 823 821 819 820 822 821 819 819 822 822 821 823 827 825 822 822 822 821 824 834 841 839 841 843 840 839 839 837 838 836 834 834 831 826 828 833 836 841 845 848 854 857 858 863 867 864 856 857 860 862 869 851 811 796 799 794 792 794 792 793 792 789 784 779 775 772 769 765 759
822 820 815 816 818 819 820 820 824 828 823 819 819 817 817 817 815 816 819 822 822 819 820 822 821 821 820 818 820 823 823 824 826 825 821 821 823 826 835 841 841 842 841 838 838 839 841 844 843 837 834 833 832 835 837 838 840 843 849 851 851 855 861 870 870 858 858 858 854 862 850 807 790 795 793 793 795 793 793 791 787 782 776 772 768 764 760 754
818 815 814 816 817 818 819 819 825 827 820 817 817 815 815 815 814 815 816 818 819 818 820 821 820 820 818 818 821 824 822 820 822 823 823 826 830 834 838 841 843 843 840 837 839 841 842 845 845 838 833 837 843 845 843 844 845 846 848 850 852 854 855 861 864 860 865 862 855 863 849 805 788 794 794 794 795 793 793 789 784 780 773 769 765 758 753 748
815 814 815 815 816 818 816 812 815 818 816 817 817 814 814 814 811 812 813 811 812 815 817 818 818 816 817 820 821 819 819 817 815 819 826 829 833 837 840 842 842 842 838 834 836 838 837 838 841 839 834 836 841 845 845 846 847 849 849 849 851 853 855 859 859 862 867 858 850 861 849 808 792 795 793 793 793 792 790 787 783 778 770 765 760 751 747 743
815 814 815 815 814 815 813 806 804 808 811 813 811 809 811 812 809 807 807 807 809 812 812 814 817 816 818 824 823 819 818 815 813 819 826 831 836 841 841 842 843 841 838 837 837 837 838 839 839 838 838 838 833 832 836 842 847 849 849 848 848 851 856 859 862 869 869 854 844 850 841 811 796 796 793 790 790 789 786 784 781 776 769 762 755 747 743 739
810 809 812 815 815 813 812 808 806 804 805 809 809 807 806 806 805 807 807 806 807 810 811 813 817 818 819 823 822 819 820 820 820 822 826 832 838 841 840 841 843 842 838 838 838 839 844 847 842 837 838 839 834 831 834 843 850 852 851 846 843 846 851 855 864 867 861 853 846 839 829 814 802 799 794 789 788 786 783 782 778 772 766 759 752 746 742 738
803 799 801 808 810 810 811 812 810 804 801 803 802 800 801 801 802 806 808 805 806 809 811 812 814 812 813 819 820 818 820 824 825 825 827 831 835 837 839 840 841 840 837 838 839 840 847 849 844 841 840 837 837 838 840 846 853 856 854 846 839 842 846 852 860 857 852 856 847 824 817 816 807 800 796 789 786 785 782 781 777 769 764 758 752 748 743 734
797 791 789 792 794 799 803 804 804 803 800 799 796 794 798 800 800 801 803 806 808 808 809 813 813 807 807 811 812 815 822 826 826 827 828 830 834 836 837 838 839 838 838 840 840 841 847 847 843 845 846 843 843 843 843 848 853 855 852 844 839 841 843 845 848 844 845 852 839 818 815 816 807 800 796 789 786 784 781 779 774 767 762 758 754 749 741 731
793 792 789 788 785 786 790 791 795 800 798 795 795 793 793 795 795 796 799 805 809 807 805 807 808 807 808 808 805 810 818 819 817 823 829 830 833 835 834 835 839 839 839 841 840 842 846 846 845 849 850 849 847 845 846 850 854 855 849 840 838 839 838 838 839 836 838 839 826 816 816 812 803 798 794 789 785 781 778 776 772 766 761 758 753 746 738 729
783 782 783 788 788 787 788 788 791 796 794 793 793 789 788 788 788 791 794 796 800 804 803 801 801 805 810 810 804 804 807 806 804 812 824 828 829 832 830 829 834 839 840 841 841 842 842 843 847 851 852 849 846 847 849 850 852 854 846 836 836 837 834 834 833 831 833 830 819 815 816 809 799 795 792 787 781 776 774 774 772 768 763 756 749 742 735 728
770 771 773 781 785 786 789 788 789 791 790 788 785 781 783 784 781 785 790 788 788 794 797 796 798 805 812 813 808 802 803 805 803 805 814 818 819 823 822 822 827 834 839 841 840 839 841 845 849 852 851 846 844 848 850 849 853 854 846 837 835 833 830 828 826 825 828 826 820 818 818 807 794 792 791 786 779 774 772 773 774 770 764 756 747 739 734 729
767 769 768 772 775 778 782 785 787 785 777 773 774 772 774 777 777 782 788 788 787 790 792 794 797 804 811 813 808 803 804 809 809 810 814 815 815 818 821 821 822 828 834 839 839 838 841 845 848 851 852 848 846 849 852 856 855 841 828 827 827 826 825 822 821 820 819 818 819 817 811 801 793 792 792 785 779 774 770 773 777 772 764 756 748 742 737 732